Location: Ayer Observatory
(42.2600°N, 71.0700°W)
Time: 12:54:46
(UTC-04:00)

ISS - Visible Passes

Search period start: 21 May 2019 00:00
Search period end: 31 May 2019 00:00
Orbit: 407 x 410 km, 51.6° (Epoch: 22 May)

Date Brightness Start Highest point End Pass type
(mag) Time Alt. Az. Time Alt. Az. Time Alt. Az.
21 May -0.9 00:38:48 10° NW 00:41:11 18° N 00:42:20 16° NE visible
21 May -3.8 20:32:22 10° SW 20:35:40 87° NNW 20:38:59 10° NE visible
21 May -1.1 22:09:58 10° WNW 22:12:36 21° NNW 22:15:14 10° NE visible
21 May -0.8 23:47:51 10° NW 23:50:03 16° N 23:52:15 10° NE visible
22 May -1.0 01:24:18 10° NW 01:25:00 15° NW 01:25:00 15° NW visible
22 May -1.6 21:18:38 10° W 21:21:32 28° NNW 21:24:27 10° NE visible
22 May -0.7 22:56:45 10° NW 22:58:54 16° N 23:01:03 10° NE visible
23 May -1.2 00:33:31 10° NW 00:35:25 22° N 00:35:25 22° N visible
23 May -0.8 22:05:28 10° NW 22:07:44 17° N 22:10:00 10° NE visible
23 May -1.3 23:42:41 10° NW 23:45:13 20° NNE 23:45:57 18° NNE visible
24 May -1.0 21:14:06 10° WNW 21:16:35 19° NNW 21:19:05 10° NE visible
24 May -0.9 22:51:47 10° NW 22:54:04 17° N 22:56:20 10° NE visible
25 May -1.2 00:28:06 10° NW 00:29:16 19° NW 00:29:16 19° NW visible
25 May -0.9 22:00:43 10° NW 22:02:53 16° N 22:05:02 10° NE visible
25 May -1.8 23:37:18 10° NW 23:39:55 28° N 23:39:55 28° N visible
26 May -0.9 21:09:29 10° NW 21:11:40 16° N 21:13:52 10° NE visible
26 May -1.5 22:46:28 10° NW 22:49:07 22° NNE 22:50:34 17° NE visible
27 May -0.9 00:22:44 10° NW 00:23:17 14° NW 00:23:17 14° NW visible
27 May -1.2 21:55:34 10° NW 21:57:57 18° N 22:00:20 10° ENE visible
27 May -2.1 23:31:49 10° NW 23:33:58 34° NNW 23:33:58 34° NNW visible
28 May -1.0 21:04:32 10° NW 21:06:44 16° N 21:08:56 10° NE visible
28 May -2.4 22:40:57 10° NW 22:44:01 34° NNE 22:44:41 31° NE visible
29 May -1.8 21:50:06 10° NW 21:52:54 25° NNE 21:55:24 12° ENE visible
29 May -2.0 23:26:26 10° WNW 23:28:08 27° WNW 23:28:08 27° WNW visible
30 May -1.5 20:59:12 10° NW 21:01:43 20° NNE 21:04:14 10° ENE visible
30 May -3.7 22:35:26 10° NW 22:38:44 69° NNE 22:38:52 68° NE visible
